Other Public Products
Issued by NWS Grand Forks, ND

Home | Current Version | Previous Version | Graphics & Text | Print | Product List | Glossary On
Versions: 1 2 3 4 5 6 7 8 9 10 11 12 13 14 15 16 17 18 19 20 21 22 23 24 25 26 27 28 29 30 31 32 33 34 35 36 37 38 39 40 41 42 43 44 45 46 47 48 49 50
000
FPUS83 KFGF 281831
OPUFGF
PRAIRIE TO PINES WEATHER ROUNDUP
NATIONAL WEATHER SERVICE EASTERN NORTH DAKOTA/GRAND FORKS ND
100 PM CDT SAT MAR 28 2015

 **SATELLITE DATA USED TO AUGMENT SKY COVER AT AUTOMATED STATIONS**
 *****  WEATHER ACROSS EASTERN NORTH DAKOTA  *****

CITY           SKY/WX    TMP DP  RH WIND       PRES   REMARKS
GRAND FORKS    MOSUNNY   44  28  53 S28G36    29.95F
6HR MIN TEMP:  22; 6HR MAX TEMP:  45;

GRAND FORKS AF CLOUDY    43  28  56 S22G30    29.92F
GRAND CITY NWS   N/A     43 N/A N/A S31         N/A
BUXTON           N/A     44  28  53 SE15G30     N/A
DEVILS LAKE    PTSUNNY   39  32  75 S23G31    29.82F
6HR MIN TEMP:  28; 6HR MAX TEMP:  39;

FARGO          MOSUNNY   47  26  44 S22G32    30.01F
6HR MIN TEMP:  26; 6HR MAX TEMP:  47;

WAHPETON ARPT  PTCLDY    43  25  49 S22G30    30.04F
$$

 *****  WEATHER ACROSS CENTRAL AND WESTERN NORTH DAKOTA  *****

CITY           SKY/WX    TMP DP  RH WIND       PRES   REMARKS
JAMESTOWN      CLOUDY    41  34  76 S22G31    29.90F
6HR MIN TEMP:  29; 6HR MAX TEMP:  41;

BISMARCK       SUNNY     54  34  46 S16       29.81F
6HR MIN TEMP:  28; 6HR MAX TEMP:  54;

MINOT          SUNNY     52  36  54 S23G29    29.66F
6HR MIN TEMP:  26; 6HR MAX TEMP:  52;

MINOT AFB      SUNNY     51  45  79 S22       29.66F
6HR MIN TEMP:  27; 6HR MAX TEMP:  51; 6HR PCP: TRACE;

GARRISON         N/A     49  37  63 S20       29.71F
6HR MIN TEMP:  28; 6HR MAX TEMP:  49;

WILLISTON      SUNNY     68  37  32 S15       29.58F
6HR MIN TEMP:  37; 6HR MAX TEMP:  68;

DICKINSON      SUNNY     68  37  32 S22       29.67F
6HR MIN TEMP:  36; 6HR MAX TEMP:  68;

HETTINGER      SUNNY     67  36  31 S17G26    29.75F
6HR MIN TEMP:  33; 6HR MAX TEMP:  67;

$$

 *****  OTHER OBSERVATIONS NORTHEAST NORTH DAKOTA  *****

CITY           SKY/WX    TMP DP  RH WIND       PRES   REMARKS
WALHALLA         N/A     41  37  87 S22G29    29.85F
LANGDON        NOT AVBL
CAVALIER       CLOUDY    37  32  81 S24       29.87F
GRAFTON        NOT AVBL
CANDO          MOCLDY    41  36  81 S22G29    29.80F
FORT TOTTEN      N/A     38  31  77 S20       29.95S
ROLLA          MIX PCPN  32  32 100 S21G26    29.75F WCI  20
RUGBY            N/A     45  37  76 S18G26    29.73F
 ***** THE ABOVE OBSERVATIONS ARE NON NWS ARE NOT QUALITY
        CONTROLLED AND MAY MIS-REPORT RAIN FOR SNOW...
$$

 *****  OTHER OBSERVATIONS SOUTHEAST NORTH DAKOTA *****

CITY           SKY/WX    TMP DP  RH WIND       PRES   REMARKS
COOPERSTOWN    NOT AVBL
VALLEY CITY    CLOUDY    41  37  87 S18G26    29.93F
OAKES            N/A     43  36  75 S18G28    29.95F
GWINNER        PTCLDY    45  32  61 S22         N/A
SHEYENNE NWR     N/A     41  31  67 S15       29.95
BUFFALO        NOT AVBL
WYNDMERE         N/A     39  32  75 S18         N/A
 ***** THE ABOVE OBSERVATIONS ARE NON NWS ARE NOT QUALITY
       CONTROLLED AND MAY MIS-REPORT RAIN FOR SNOW...
$$

  *****  WEATHER ACROSS NORTHERN MINNESOTA  *****

CITY           SKY/WX    TMP DP  RH WIND       PRES   REMARKS
FLAG ISLAND    MOSUNNY   32  21  64 S14       29.96F WCI  22
WARROAD        MOSUNNY   41  27  56 S14G22    29.97F
ROSEAU         MOSUNNY   43  27  52 S22G28    29.96F
HALLOCK        CLOUDY    43  30  61 S26G36    29.91F
THF RVR FALLS  MOSUNNY   43  27  52 S20G26    29.98F
6HR MIN TEMP:  21; 6HR MAX TEMP:  41;

HALSTAD          N/A     46  25  42 S26         N/A
FOSSTON        MOSUNNY   41  23  48 S23G31    30.00F
BAUDETTE       MOSUNNY   40  17  39 S16G24    30.00F
6HR MIN TEMP:  14; 6HR MAX TEMP:  40;

WASKISH        SUNNY     43  18  36 S6G20     30.02F
CROOKSTON      MOSUNNY   45  27  49 S25G33    29.98F
$$
  *****  WEATHER ACROSS CENTRAL AND WEST MINNESOTA  *****

CITY           SKY/WX    TMP DP  RH WIND       PRES   REMARKS
BEMIDJI        SUNNY     42  19  40 S13G18    30.02F
PARK RAPIDS    SUNNY     43  20  39 S20G25    30.05F
6HR MIN TEMP:  19; 6HR MAX TEMP:  44;

WADENA         MOSUNNY   41  25  52 S18G25    30.06F
DETROIT LAKES  MOSUNNY   39  27  60 S16G28    30.04F
MOORHEAD       SUNNY     43  27  52 S25       30.02F
FERGUS FALLS   PTSUNNY   41  21  45 S21       30.08F
ELBOW LAKE     CLOUDY    40  27  58 S21       30.06F
6HR MIN TEMP:  21; 6HR MAX TEMP:  41;

MORRIS MN      MOSUNNY   39  28  65 S21       30.07F
STAPLES        SUNNY     39  19  45 S18       30.09F
WHEATON        MOSUNNY   39  28  65 S18G29    30.07F
$$
  *****  WEATHER ELSEWHERE ACROSS MINNESOTA  *****

CITY           SKY/WX    TMP DP  RH WIND       PRES   REMARKS
DULUTH         SUNNY     39   8  27 S16       30.13F
6HR MIN TEMP:  13; 6HR MAX TEMP:  39;

INTRNTL FALLS  SUNNY     41  11  29 S9G25     30.03F
6HR MIN TEMP:  13; 6HR MAX TEMP:  41;

ELY            SUNNY     39   3  22 S14       30.08F
CLOQUET        SUNNY     39   1  20 S12G17    30.13F
BRAINERD       SUNNY     39  15  37 S15G24    30.12F
6HR MIN TEMP:  12; 6HR MAX TEMP:  40;

HIBBING        SUNNY     40   5  23 S13       30.09F
6HR MIN TEMP:   4; 6HR MAX TEMP:  40;

ALEXANDRIA     PTSUNNY   38  24  57 S21G28    30.10F
6HR MIN TEMP:  22; 6HR MAX TEMP:  39;

SAINT CLOUD    SUNNY     40  17  39 S15G25    30.16F
6HR MIN TEMP:  17; 6HR MAX TEMP:  41;

MINNEAPOLIS    SUNNY     39  14  36 SE15      30.22F
6HR MIN TEMP:  20; 6HR MAX TEMP:  39;

$$

  *****  WEATHER ACROSS SOUTH DAKOTA  *****

CITY           SKY/WX    TMP DP  RH WIND       PRES   REMARKS
SIOUX FALLS    MOSUNNY   45  26  47 S20       30.09F
6HR MIN TEMP:  28; 6HR MAX TEMP:  45;

BROOKINGS      NOT AVBL
WATERTOWN      MOSUNNY   43  26  51 S21G30    30.02F
6HR MIN TEMP:  28; 6HR MAX TEMP:  44;

HURON          SUNNY     47  29  49 S18G25    30.01F
6HR MIN TEMP:  29; 6HR MAX TEMP:  47;

SISSETON         N/A     41  33  73 S22G28    30.03F
ABERDEEN       SUNNY     48  29  47 S20G28    29.98F
6HR MIN TEMP:  31; 6HR MAX TEMP:  48;

MITCHELL       SUNNY     48  29  47 S22       30.04F
PIERRE         SUNNY     56  35  45 SE21      29.88F
6HR MIN TEMP:  22; 6HR MAX TEMP:  56;

MOBRIDGE       SUNNY     53  34  48 S23       29.84F
RAPID CITY     SUNNY     72  34  24 S17       29.80F
6HR MIN TEMP:  36; 6HR MAX TEMP:  73;

$$

  *****  SOME WEATHER IN NEARBY STATES *****

CITY           SKY/WX    TMP DP  RH WIND       PRES   REMARKS
GLASGOW MT     MOSUNNY   70  37  29 S12       29.52F
6HR MIN TEMP:  36; 6HR MAX TEMP:  70;

GREAT FALLS MT CLOUDY    52  27  37 W36G55    29.77R
6HR MIN TEMP:  49; 6HR MAX TEMP:  62;

CHEYENNE WY    SUNNY     69  21  16 W29G38    30.04F
6HR MIN TEMP:  38; 6HR MAX TEMP:  70;

SCOTTSBLUFF NE SUNNY     73  33  23 W12G23    29.92F
6HR MIN TEMP:  30; 6HR MAX TEMP:  74;

OMAHA NE       MOSUNNY   48  27  44 S15G23    30.15F
6HR MIN TEMP:  32; 6HR MAX TEMP:  48;

DES MOINES IA  MOSUNNY   46  12  25 S13       30.22F
6HR MIN TEMP:  32; 6HR MAX TEMP:  46;

DAVENPORT IA   SUNNY     37   9  31 E9        30.32F
6HR MIN TEMP:  18; 6HR MAX TEMP:  38;

CHICAGO IL     MOSUNNY   33   9  36 NE8       30.33F
6HR MIN TEMP:  20; 6HR MAX TEMP:  33;

EAU CLAIRE WI  SUNNY     39  10  30 SW10      30.23F
6HR MIN TEMP:  14; 6HR MAX TEMP:  39;

LA CROSSE WI   SUNNY     39  11  31 S8        30.28F
6HR MIN TEMP:  20; 6HR MAX TEMP:  40;

$$

  *****  SOME NATIONAL WEATHER *****

CITY           SKY/WX    TMP DP  RH WIND       PRES   REMARKS



USA.gov is the U.S. government's official web portal to all federal, state and local government web resources and services.